Location: Unspecified
(17.6330°N, 0.0000°E)
Time: 23:25:45
(UTC+00:00)

A-11 Canister half - Pass Details

Date: 20 June 2019
Orbit: 1514 x 1685 km, 47.2° (Epoch: 19 July)

Event Time Altitude Azimuth Distance (km) Brightness Sun altitude
Rises 10:01:23 0° 239° (WSW) 4,928 11.4 61.3°
Reaches altitude 10° 10:04:43 10° 244° (WSW) 3,932 11.0 62.1°
Maximum altitude 10:14:24 50° 317° (NW) 2,013 10.3 64.3°
Drops below altitude 10° 10:23:52 10° 31° (NNE) 3,832 11.5 66.4°
Sets 10:27:05 0° 37° (NE) 4,794 11.9 67.2°
